Location: Newark
(11.2914°S, 14.4718°E)
Time: 04:40:17
(UTC+00:00)

Explorer 7 - Pass Details

Date: 27 September 2019
Orbit: 485 x 680 km, 50.3° (Epoch: 22 October)

Event Time Altitude Azimuth Distance (km) Brightness Sun altitude
Rises 04:17:34 0° 332° (NNW) 3,006 10.3 -8.5°
Reaches altitude 10° 04:19:59 10° 336° (NNW) 2,084 9.5 -7.9°
Maximum altitude 04:24:42 54° 53° (NE) 792 8.0 -6.7°
Drops below altitude 10° 04:29:14 10° 130° (SE) 2,013 10.6 -5.6°
Sets 04:31:33 0° 134° (SE) 2,892 11.3 -5.0°
